[[{"header":{"parameterUnit":"m.s-1","parameterCategory":1,"la1":30.2991,"la2":30.254,"lo1":-89.0895,"lo2":-89.0444,"dy":0.0017,"dx":0.0017,"nx":28,"ny":28,"refTime":"2024-08-20T09:00:00:Z","depth":0,"parameterNumber":2,"parameterNumberName":"U-component_of_WINDS"},"data":[0,0,0,0,0,0,0,0,0,0,0,0,0,0,0,0,0,0,0,0,0,0,0,0,0,0,0,0,0,0,0,0,0,0,0,0,0,0,0,0,0,0,0,0,0,0,0,0,0,0,0,0,0,0,0,0,0,0,-0.4823,-0.4822,0,-0.4803,-0.4803,-0.4803,-0.4743,-0.4742,-0.474,-0.4739,-0.4721,-0.4721,-0.4722,0,0,0,0,0,0,0,0,0,0,0,0,0,-0.4808,-0.4809,-0.4823,-0.4822,-0.4822,-0.4803,-0.4803,-0.4803,-0.4743,-0.4742,-0.474,-0.4739,-0.472,-0.4721,-0.4722,0,0,0,0,0,0,0,0,0,0,0,0,0,-0.4804,-0.4809,-0.4823,-0.479,-0.4787,-0.4803,-0.4803,-0.4802,-0.4744,-0.4742,-0.474,-0.4738,-0.472,-0.4721,-0.4722,-0.4769,0,0,-0.4726,-0.4726,0,0,0,0,0,0,0,0,-0.4805,-0.4805,-0.4795,-0.4792,-0.4789,-0.4773,-0.4791,-0.4791,-0.4744,-0.476,-0.4739,-0.4737,-0.474,-0.4739,-0.474,-0.4768,-0.4767,-0.4726,-0.4726,-0.4727,-0.4727,0,0,0,0,0,0,0,-0.4805,-0.4805,-0.4815,-0.4795,-0.4791,-0.4776,-0.4774,-0.4791,-0.4761,-0.4759,-0.4754,-0.4753,-0.4738,-0.4739,-0.4739,-0.4767,-0.4726,-0.4727,-0.4727,-0.4728,-0.4829,-0.4831,0,0,0,0,0,0,-0.481,-0.4806,-0.4815,-0.4814,-0.4792,-0.4778,-0.4775,-0.478,-0.4761,-0.4756,-0.4754,-0.475,-0.4738,-0.4738,-0.4738,-0.4789,-0.4727,-0.4728,-0.4728,-0.4827,-0.4829,-0.4831,0,0,0,0,0,0,-0.481,-0.4811,-0.4816,-0.4809,-0.4808,-0.4781,-0.4787,-0.4781,-0.4782,-0.4758,-0.4752,-0.4761,-0.4736,-0.4737,-0.4761,-0.4788,-0.4728,-0.4729,-0.4824,-0.4827,-0.483,-0.4893,0,0,0,0,0,0,-0.4809,-0.4811,-0.4829,-0.481,-0.4809,-0.484,-0.4789,-0.4782,-0.4784,-0.4778,-0.4763,-0.4758,-0.4735,-0.4759,-0.4762,-0.4788,-0.473,-0.4822,-0.4826,-0.4829,-0.4889,-0.4898,-0.4906,0,0,0,0,0,-0.4809,-0.4848,-0.483,-0.4832,-0.483,-0.4841,-0.4841,-0.4813,-0.4787,-0.4804,-0.4788,-0.4759,-0.4785,-0.4762,-0.4765,-0.4792,-0.482,-0.4824,-0.4829,-0.4885,-0.4896,-0.4906,0,0,0,0,0,0,-0.4873,-0.4845,-0.4825,-0.4859,-0.4853,-0.4831,-0.4852,-0.4827,-0.4828,-0.4823,-0.4788,-0.4785,-0.4814,-0.4805,-0.4781,-0.4834,-0.4797,-0.4802,-0.4839,-0.485,-0.4858,-0.4859,-0.4731,0,0,0,0,0,-0.4891,-0.4902,-0.4877,-0.491,-0.4907,-0.488,-0.4884,-0.4863,-0.4855,-0.4853,-0.4838,-0.4832,-0.4838,-0.4844,-0.4849,-0.4887,-0.4882,-0.4907,-0.4915,-0.4923,-0.4927,-0.4945,-0.4955,-0.4846,-0.4846,-0.4846,0,0,-0.4928,-0.4914,-0.4924,-0.4922,-0.4915,-0.4926,-0.4879,-0.4894,-0.4902,-0.4855,-0.4876,-0.4866,-0.4856,-0.4887,-0.49,-0.4881,-0.4956,-0.4929,-0.4935,-0.4935,-0.4951,-0.4961,-0.497,-0.4849,-0.4849,-0.4848,0,0,-0.5002,-0.4993,-0.5018,-0.5011,-0.5,-0.4981,-0.4987,-0.4969,-0.496,-0.498,-0.4945,-0.4954,-0.4967,-0.4961,-0.4959,-0.5028,-0.5001,-0.5031,-0.5077,-0.5094,-0.5103,-0.511,-0.5133,-0.5142,-0.5036,-0.5036,-0.5036,0,-0.505,-0.5065,-0.5034,-0.5051,-0.505,-0.5007,-0.5032,-0.5027,-0.5018,-0.5019,-0.4998,-0.501,-0.5002,-0.5029,-0.5046,-0.5047,-0.5052,-0.5032,-0.5104,-0.5111,-0.5117,-0.5139,-0.5148,-0.504,-0.5039,-0.5039,-0.5039,0,-0.5124,-0.5135,-0.5157,-0.5148,-0.515,-0.5171,-0.5142,-0.5148,-0.5127,-0.511,-0.5131,-0.5118,-0.5118,-0.5124,-0.5103,-0.5148,-0.5136,-0.511,-0.5072,-0.5132,-0.5151,-0.516,-0.5045,-0.5043,-0.5042,-0.5042,0,0,-0.5238,-0.521,-0.5218,-0.5213,-0.5197,-0.5205,-0.5223,-0.5222,-0.5227,-0.5223,-0.5236,-0.5246,-0.5221,-0.522,-0.5198,-0.5214,-0.5267,-0.5185,-0.5184,-0.5199,-0.5313,-0.5332,-0.5342,-0.5249,-0.525,-0.5251,-0.5313,0,-0.5306,-0.5335,-0.5306,-0.534,-0.535,-0.5308,-0.5323,-0.5315,-0.53,-0.5305,-0.5288,-0.5295,-0.5263,-0.5261,-0.5275,-0.5258,-0.5289,-0.5253,-0.526,-0.5261,-0.5262,-0.5353,-0.5373,-0.5432,-0.5321,-0.5322,-0.5323,0,-0.539,-0.5387,-0.5422,-0.5401,-0.5404,-0.5418,-0.5414,-0.542,-0.5409,-0.5397,-0.5394,-0.5368,-0.5383,-0.5346,-0.5366,-0.5342,-0.5343,-0.5335,-0.5337,-0.5335,-0.5295,-0.5353,-0.5451,-0.5459,-0.5335,-0.5334,-0.5333,0,-0.5467,-0.5473,-0.5493,-0.549,-0.5467,-0.5478,-0.5469,-0.5456,-0.5456,-0.5453,-0.5453,-0.5452,-0.5451,-0.5451,-0.5424,-0.54,-0.5447,-0.5408,-0.5436,-0.5437,-0.5447,-0.5447,-0.5546,-0.545,-0.545,-0.545,-0.545,0,-0.5546,-0.5568,-0.5527,-0.554,-0.5564,-0.553,-0.5555,-0.5541,-0.553,-0.5539,-0.5503,-0.5513,-0.5477,-0.5482,-0.5462,-0.548,-0.5481,-0.547,-0.5464,-0.5473,-0.5474,-0.5472,-0.5467,-0.5452,-0.5452,-0.5451,-0.5451,0,-0.5636,-0.561,-0.5629,-0.5605,-0.56,-0.5618,-0.5597,-0.5607,-0.5589,-0.5601,-0.5602,-0.5573,-0.5577,-0.5551,-0.555,-0.5536,-0.5564,-0.5552,-0.5568,-0.5563,-0.5592,-0.5589,-0.5692,-0.5703,-0.5603,-0.5604,-0.5605,0,-0.5687,-0.5703,-0.568,-0.5683,-0.5675,-0.5681,-0.5681,-0.5649,-0.565,-0.5638,-0.5649,-0.565,-0.5649,-0.5658,-0.5637,-0.5636,-0.5622,-0.5658,-0.5622,-0.5629,-0.5621,-0.5619,-0.562,-0.5666,-0.5667,-0.5668,-0.5669,0,-0.578,-0.5766,-0.5767,-0.5763,-0.5764,-0.576,-0.5753,-0.5758,-0.5722,-0.5726,-0.5729,-0.5728,-0.5726,-0.5727,-0.5722,-0.5712,-0.5684,-0.5681,-0.5687,-0.5695,-0.5703,-0.5697,-0.5587,-0.5678,-0.5677,-0.5677,-0.5676,-0.5676,-0.5851,-0.5863,-0.5847,-0.5849,-0.5841,-0.5835,-0.5843,-0.5825,-0.5827,-0.5822,-0.5803,-0.5809,-0.5796,-0.5786,-0.5778,-0.5782,-0.5765,-0.5774,-0.5776,-0.5779,-0.5783,-0.5703,-0.5781,-0.5781,-0.5781,-0.5781,-0.578,0,-0.5941,-0.5929,-0.5931,-0.5922,-0.5923,-0.5896,-0.5887,-0.5889,-0.5895,-0.5885,-0.5884,-0.5887,-0.5887,-0.5866,-0.5863,-0.587,-0.5857,-0.587,-0.5869,-0.5867,-0.58,-0.5794,-0.5881,-0.5881,-0.5881,-0.5881,-0.5881,-0.588,-0.5988,-0.6005,-0.5988,-0.6,-0.5988,-0.5993,-0.599,-0.5983,-0.5975,-0.5979,-0.5979,-0.5964,-0.5949,-0.5945,-0.5943,-0.5937,-0.5937,-0.5954,-0.5944,-0.5881,-0.5872,-0.5862,-0.5857,-0.5955,-0.5955,-0.601,-0.601,-0.6011]},{"header":{"parameterUnit":"m.s-1","parameterCategory":1,"la1":30.2991,"la2":30.254,"lo1":-89.0895,"lo2":-89.0444,"dy":0.0017,"dx":0.0017,"nx":28,"ny":28,"refTime":"2024-08-20T09:00:00:Z","depth":0,"parameterNumber":3,"parameterNumberName":"V-component_of_WINDS"},"data":[0,0,0,0,0,0,0,0,0,0,0,0,0,0,0,0,0,0,0,0,0,0,0,0,0,0,0,0,0,0,0,0,0,0,0,0,0,0,0,0,0,0,0,0,0,0,0,0,0,0,0,0,0,0,0,0,0,0,-1.4966,-1.4968,0,-1.5157,-1.5159,-1.5161,-1.5256,-1.5256,-1.5256,-1.5256,-1.545,-1.5455,-1.546,0,0,0,0,0,0,0,0,0,0,0,0,0,-1.4681,-1.4686,-1.4966,-1.4968,-1.497,-1.5156,-1.5159,-1.5162,-1.5256,-1.5256,-1.5256,-1.5256,-1.5448,-1.5454,-1.5461,0,0,0,0,0,0,0,0,0,0,0,0,0,-1.4831,-1.4687,-1.4965,-1.504,-1.5048,-1.5156,-1.5159,-1.5162,-1.5256,-1.5256,-1.5256,-1.5256,-1.5446,-1.5454,-1.5462,-1.5509,0,0,-1.5485,-1.5489,0,0,0,0,0,0,0,0,-1.4823,-1.4842,-1.5026,-1.5035,-1.5045,-1.5182,-1.513,-1.5278,-1.5256,-1.5177,-1.5256,-1.5256,-1.5361,-1.5376,-1.5411,-1.5518,-1.5526,-1.5486,-1.5491,-1.5494,-1.5496,0,0,0,0,0,0,0,-1.4812,-1.4834,-1.5041,-1.5029,-1.504,-1.5063,-1.5085,-1.5159,-1.5266,-1.5184,-1.5191,-1.5213,-1.5366,-1.5404,-1.5417,-1.5529,-1.5486,-1.5493,-1.5497,-1.55,-1.5684,-1.5684,0,0,0,0,0,0,-1.479,-1.4825,-1.5035,-1.5047,-1.4932,-1.5068,-1.5092,-1.5138,-1.5266,-1.5285,-1.5212,-1.5216,-1.5391,-1.5408,-1.5424,-1.5488,-1.5494,-1.5501,-1.5506,-1.5684,-1.5684,-1.5684,0,0,0,0,0,0,-1.4783,-1.4808,-1.5028,-1.4938,-1.4968,-1.5073,-1.5124,-1.5142,-1.518,-1.5288,-1.5307,-1.5231,-1.5391,-1.5413,-1.5487,-1.5496,-1.5505,-1.5512,-1.5684,-1.5684,-1.5684,-1.5616,0,0,0,0,0,0,-1.4775,-1.4805,-1.4824,-1.4938,-1.4972,-1.5088,-1.5125,-1.5146,-1.5193,-1.52,-1.531,-1.5329,-1.5393,-1.5475,-1.5495,-1.5507,-1.5518,-1.5683,-1.5684,-1.5684,-1.5618,-1.5614,-1.5611,0,0,0,0,0,-1.4764,-1.4797,-1.4825,-1.485,-1.4999,-1.5088,-1.5108,-1.5181,-1.5193,-1.5214,-1.5283,-1.5325,-1.5492,-1.5482,-1.5505,-1.5519,-1.5683,-1.5684,-1.5684,-1.562,-1.5615,-1.5611,0,0,0,0,0,0,-1.4682,-1.4814,-1.4846,-1.4916,-1.499,-1.5104,-1.5132,-1.5174,-1.5246,-1.5249,-1.5337,-1.5361,-1.5427,-1.5481,-1.5467,-1.5572,-1.5592,-1.5597,-1.5535,-1.5531,-1.5527,-1.5513,-1.5524,0,0,0,0,0,-1.4672,-1.4734,-1.4846,-1.4897,-1.4933,-1.5025,-1.5067,-1.5117,-1.5197,-1.5229,-1.5304,-1.5379,-1.5449,-1.5493,-1.5563,-1.5626,-1.5651,-1.5647,-1.5643,-1.564,-1.5644,-1.5681,-1.5681,-1.5686,-1.5686,-1.5686,0,0,-1.4652,-1.4732,-1.4766,-1.4883,-1.4946,-1.5008,-1.5051,-1.5115,-1.5162,-1.5239,-1.5314,-1.537,-1.5461,-1.553,-1.5564,-1.5576,-1.5647,-1.5641,-1.5637,-1.5643,-1.5682,-1.5681,-1.568,-1.5687,-1.5687,-1.5686,0,0,-1.4648,-1.4714,-1.4765,-1.4827,-1.4922,-1.4984,-1.4995,-1.5103,-1.5144,-1.522,-1.528,-1.5336,-1.5454,-1.5516,-1.5562,-1.558,-1.5622,-1.5601,-1.5582,-1.5617,-1.5617,-1.5617,-1.5623,-1.5625,-1.5604,-1.5604,-1.5603,0,-1.4611,-1.4708,-1.4785,-1.4846,-1.4895,-1.4968,-1.5019,-1.5076,-1.5189,-1.5221,-1.5233,-1.5383,-1.5449,-1.5533,-1.5537,-1.5573,-1.5589,-1.5589,-1.561,-1.5611,-1.5613,-1.562,-1.5622,-1.56,-1.5601,-1.5601,-1.5601,0,-1.4658,-1.4723,-1.4752,-1.486,-1.4912,-1.4968,-1.5053,-1.5097,-1.5142,-1.5202,-1.5279,-1.536,-1.5448,-1.5471,-1.5516,-1.5562,-1.5567,-1.5594,-1.5615,-1.5607,-1.5616,-1.5619,-1.5596,-1.5597,-1.5598,-1.5599,0,0,-1.4608,-1.4757,-1.4766,-1.4816,-1.4926,-1.4978,-1.5036,-1.5122,-1.5158,-1.5233,-1.5284,-1.5382,-1.5407,-1.546,-1.5512,-1.5543,-1.5552,-1.5567,-1.557,-1.5561,-1.5608,-1.5588,-1.559,-1.558,-1.5581,-1.5582,-1.5601,0,-1.4619,-1.4728,-1.4799,-1.4879,-1.494,-1.501,-1.5061,-1.5133,-1.519,-1.525,-1.5314,-1.5381,-1.541,-1.5442,-1.5476,-1.5544,-1.5563,-1.5544,-1.5629,-1.5631,-1.5605,-1.5594,-1.5573,-1.5586,-1.5604,-1.5605,-1.5606,0,-1.4647,-1.472,-1.4806,-1.491,-1.4938,-1.4982,-1.5067,-1.5123,-1.5207,-1.5246,-1.5305,-1.5358,-1.5422,-1.5437,-1.5527,-1.5512,-1.5551,-1.5589,-1.5592,-1.5603,-1.5618,-1.5605,-1.5593,-1.5595,-1.5611,-1.5611,-1.5611,0,-1.4602,-1.4722,-1.4789,-1.483,-1.4951,-1.4981,-1.5033,-1.5117,-1.5163,-1.5237,-1.5268,-1.5348,-1.5391,-1.5451,-1.5524,-1.5529,-1.5606,-1.5628,-1.5641,-1.5639,-1.5655,-1.5653,-1.5648,-1.5678,-1.5678,-1.5678,-1.5678,0,-1.4607,-1.4657,-1.4771,-1.4812,-1.487,-1.4951,-1.5006,-1.5064,-1.5137,-1.5191,-1.5255,-1.5304,-1.5397,-1.5457,-1.5515,-1.558,-1.5599,-1.5633,-1.5647,-1.5627,-1.5623,-1.5654,-1.5655,-1.5679,-1.5679,-1.5679,-1.5679,0,-1.4567,-1.4645,-1.4723,-1.4832,-1.486,-1.4898,-1.4991,-1.5034,-1.5094,-1.5161,-1.5181,-1.5276,-1.535,-1.5428,-1.5529,-1.5567,-1.563,-1.565,-1.5602,-1.561,-1.5619,-1.5617,-1.5635,-1.5641,-1.5666,-1.5666,-1.5665,0,-1.4566,-1.4606,-1.4719,-1.4759,-1.481,-1.4874,-1.4923,-1.5003,-1.5051,-1.5149,-1.5179,-1.5258,-1.5326,-1.544,-1.5518,-1.5595,-1.5618,-1.5619,-1.563,-1.5608,-1.5619,-1.5615,-1.562,-1.5615,-1.5615,-1.5614,-1.5614,0,-1.4555,-1.4591,-1.4658,-1.4739,-1.4795,-1.4862,-1.4932,-1.4961,-1.5056,-1.5105,-1.5182,-1.5234,-1.5337,-1.5414,-1.5501,-1.5554,-1.56,-1.5609,-1.5617,-1.5597,-1.5567,-1.5583,-1.5592,-1.5609,-1.5609,-1.561,-1.561,-1.561,-1.4535,-1.4573,-1.4659,-1.4731,-1.4792,-1.4856,-1.4901,-1.4967,-1.5032,-1.5122,-1.5166,-1.5242,-1.5324,-1.5445,-1.5497,-1.5558,-1.5572,-1.5582,-1.5585,-1.5586,-1.5581,-1.5557,-1.5574,-1.5574,-1.5574,-1.5575,-1.5575,0,-1.4527,-1.4585,-1.4651,-1.4747,-1.4803,-1.4841,-1.492,-1.4965,-1.5032,-1.5105,-1.517,-1.5257,-1.5333,-1.5416,-1.5496,-1.5529,-1.5551,-1.5547,-1.5546,-1.5557,-1.5564,-1.555,-1.5527,-1.5527,-1.5527,-1.5527,-1.5527,-1.5527,-1.453,-1.4598,-1.4644,-1.4742,-1.48,-1.4876,-1.4918,-1.4976,-1.5035,-1.513,-1.5193,-1.5247,-1.5324,-1.541,-1.5481,-1.5504,-1.553,-1.5519,-1.5548,-1.5553,-1.5557,-1.556,-1.5548,-1.5525,-1.5524,-1.5536,-1.5536,-1.5536]}]]